Starlink 11632

operational
NORAD ID: 63108 Int'l Des: 2025-039 Owner: SPXS Country: US Constellation: starlink
LEOCIRCULAR

Über Starlink 11632

Beschreibung wird geladen...

Live-Position

3D-Globus wird geladen...

Nächste Überflüge

Höhenverlauf

Altitude vs Time

uPlot chart will show altitude changes over time

Zweizeiliger Elementsatz

1 63108U 25039E 26034.54395598 .00189133 00000-0 14421-2 0 9999
2 63108 42.9996 82.8078 0000825 255.5347 104.5429 15.70874458 54247
Epoch: 3. Feb. 2026 • Age: 9 hours

Aktueller Status

Höhe 363.3 km
Geschwindigkeit 7.69 km/s
Subsatellitenpunkt -29.06°S, 60.16°W
Startdatum 27. Feb. 2025
Alter 0.9 years
Typ internet

Technische Details

Klassifizierung Payload
Masse 960.00 kg
Trockenmasse 910.00 kg
Gesamtmasse 960.00 kg
Länge 0.30 m
Durchmesser 4.10 m
Spannweite 29.00 m
Form Box + pan
Hersteller SPXS
Bus-Typ Starlink V2MD
Phasenstatus In Orbit
Besitzer/Staat SPXS/US

Große Konstellationen

Loading constellations...